Regional Weather Roundup
Issued by NWS

Home | Current Version | Previous Version | Text Only | Print | Product List | Glossary Off
Versions: 1 2 3 4 5 6 7 8 9 10 11 12 13 14 15 16 17 18 19 20 21 22 23 24 25 26 27 28 29 30 31 32 33 34 35 36 37 38 39 40 41 42 43 44 45 46 47 48 49 50

000
ASUS43 KDMX 300508
RWRIA

WEATHER ROUNDUP FOR IOWA
NATIONAL WEATHER SERVICE DES MOINES IA
1200 AM CDT SAT APR 30 2016

NOTE: "FAIR" INDICATES FEW OR NO CLOUDS BELOW 12,000 FEET WITH NO
SIGNIFICANT WEATHER AND/OR OBSTRUCTIONS TO VISIBILITY.

* - THESE STATIONS ARE NOT NWS STATIONS...THUS NOT UNDER NWS
QUALITY CONTROL.  THEY ALSO DO NOT REPORT WEATHER SUCH
AS PRECIPITATION OR FOG.

IAZ001>003-012>014-020>022-031>034-043>046-300600-
   NORTHWEST IOWA

CITY           SKY/WX    TMP DP  RH WIND       PRES   REMARKS
CARROLL *      CLOUDY    45  43  93 E15G22    30.00S
CHEROKEE *     CLOUDY    45  41  87 E12G17    30.03R
DENISON *      CLOUDY    45  41  87 E14G23    29.96S
LE MARS *      CLOUDY    46  39  76 E10       30.03S
ORANGE CITY *  CLOUDY    45  39  81 E9        30.03R
SHELDON *      CLEAR     43  41  93 E9        30.02F
SIOUX CITY     CLOUDY    47  39  74 E15       30.01S
SPENCER        CLOUDY    46  39  76 E13       30.05F
STORM LAKE *   CLOUDY    45  39  81 E17G23    30.02S
$$

IAZ055>058-069>071-079>083-090>094-300600-
   SOUTHWEST IOWA

CITY           SKY/WX    TMP DP  RH WIND       PRES   REMARKS
ATLANTIC *     CLOUDY    46  43  87 NE15G25   29.94F
AUDUBON *      DRIZZLE   45  41  87 NE15      29.97F
CLARINDA *       N/A    N/A N/A N/A MISG        N/A
COUNCIL BLFS * CLOUDY    46  43  87 E17G24    29.91F
CRESTON *      CLOUDY    46  43  87 E23       29.94R
HARLAN  *      CLOUDY    45  43  93 NE20      29.97F
LAMONI         CLOUDY    47  44  90 E14G22    29.91S
RED OAK *      CLOUDY    48  43  81 NE22G28   29.90F
SHENANDOAH *   CLOUDY    48  45  87 E15G26    29.90R
$$

IAZ047>049-059>061-072>074-084-300600-
   CENTRAL IOWA

CITY           SKY/WX    TMP DP  RH WIND       PRES   REMARKS
AMES           CLOUDY    47  41  80 E12       30.02F
ANKENY *       CLOUDY    46  45  93 E13       30.00F
BOONE *        CLOUDY    46  41  81 E16       30.00F
CHARITON *     CLOUDY    48  45  87 E14       29.96R
DES MOINES     LGT RAIN  48  42  80 E15       30.00F
GRINNELL*      CLOUDY    46  41  81 NE14      30.01F
KNOXVILLE *    CLOUDY    46  43  87 E14G22    29.98R
MARSHALLTOWN   CLOUDY    46  40  79 E10       30.03F
NEWTON *       CLOUDY    46  45  93 E15       30.00F
PELLA *        RAIN      46  43  87 E10G18    30.01R
$$

IAZ004>006-015-016-023>025-035-036-300600-
   NORTH CENTRAL IOWA

CITY           SKY/WX    TMP DP  RH WIND       PRES   REMARKS
ALGONA *       CLOUDY    46  41  81 E8        30.06S
CLARION *      CLOUDY    45  43  93 E9        30.05F
ESTHERVILLE    PTCLDY    42  40  92 E8        30.05F
FORT DODGE *   CLOUDY    45  37  76 NE10      30.04F
MASON CITY     CLOUDY    46  41  82 E9        30.08F
FOREST CITY *  CLOUDY    45  39  81 E7        30.07S
WEBSTER CITY * CLOUDY    46  43  87 E12       30.02F
IOWA FALLS *   MOCLDY    46  41  81 E10       30.06S
$$

IAZ007>011-017>019-026>030-037>042-050>054-066-300600-
   NORTHEAST IOWA

CITY           SKY/WX    TMP DP  RH WIND       PRES   REMARKS
CEDAR RAPIDS   CLOUDY    46  42  86 E10       30.03F
CHARLES CITY * CLOUDY    46  43  87 NE8       30.08R
CLINTON *      CLOUDY    46  41  82 E10       30.09R
DECORAH *      MOCLDY    45  39  81 CALM      30.08F
DUBUQUE        CLOUDY    44  39  82 SE3       30.09
MONTICELLO *   MOCLDY    46  41  81 E7        30.07S
OELWEIN *      CLOUDY    45  43  93 E6        30.09R
WATERLOO       CLOUDY    44  40  85 E6        30.06F
$$

IAZ064-065-067-068-078-300600-
   EAST CENTRAL IOWA

CITY           SKY/WX    TMP DP  RH WIND       PRES   REMARKS
DAVENPORT      CLOUDY    46  40  79 E9        30.06F
IOWA CITY      CLOUDY    47  41  80 E10       30.04F
MT. PLEASANT * DRIZZLE   50  45  81 E16       29.99F
MUSCATINE *    CLOUDY    48  41  76 E13       30.03F
QUAD CITIES    CLOUDY    48  41  76 NE10      30.05S
$$

IAZ062-063-075>077-085>089-095>099-300600-
   SOUTHEAST IOWA

CITY           SKY/WX    TMP DP  RH WIND       PRES   REMARKS
BURLINGTON     CLOUDY    48  44  86 E15       29.98F
FAIRFIELD *    DRIZZLE   48  43  81 E15G21    29.98F
FORT MADISON * CLOUDY    48  45  87 E12G20    29.98F
KEOKUK *       CLOUDY    50  45  81 E15G25    29.95F
OSKALOOSA *    LGT RAIN  46  43  87 E17       30.00R
OTTUMWA        LGT RAIN  47  44  90 NE14      29.98F
WASHINGTON *   CLOUDY    46  45  93 E15       30.01F
$$

ABBREVIATIONS USED IN REMARKS
   TC - TEMPERATURES IN CELSIUS
  WCI - WIND CHILL INDEX
   HX - HEAT INDEX
  VSB - VISIBILITY
$$




USA.gov is the U.S. government's official web portal to all federal, state and local government web resources and services.